• In Portugal
  • List of Countries
  • For 7 days
  • Water Temperature
  • Satellite Maps
  • Weather Map
  • Weather Widgets
  • user-avatar
    Login

    Hourly Weather Novoe Gudovo

    Today, 24 September, Monday

    Time Temperature Precipitation Wind Pressure Humidity
    00:00 +8°C° 0 mm 3 mps 738 mmHg 90%
    01:00 +8°C° 0 mm 3 mps 737 mmHg 90%
    02:00 +7°C° 0 mm 2 mps 737 mmHg 92%
    03:00 +8°C° 0.5 mm 2 mps 736 mmHg 93%
    04:00 +8°C° 0.5 mm 3 mps 736 mmHg 93%
    05:00 +7°C° 0.5 mm 4 mps 735 mmHg 93%
    06:00 +7°C° 1.8 mm 4 mps 734 mmHg 94%
    07:00 +7°C° 1.8 mm 5 mps 733 mmHg 94%
    08:00 +7°C° 0 mm 6 mps 733 mmHg 93%
    09:00 +7°C° 3 mm 6 mps 731 mmHg 93%
    10:00 +6°C° 3 mm 7 mps 730 mmHg 93%
    11:00 +6°C° 3 mm 7 mps 729 mmHg 93%
    12:00 +8°C° 2.8 mm 7 mps 728 mmHg 93%
    13:00 +8°C° 2.8 mm 6 mps 728 mmHg 94%
    14:00 +8°C° 0 mm 5 mps 727 mmHg 95%
    15:00 +8°C° 1.2 mm 6 mps 727 mmHg 93%
    16:00 +6°C° 1.2 mm 8 mps 728 mmHg 92%
    17:00 +6°C° 1.2 mm 9 mps 728 mmHg 90%
    18:00 +5°C° 0.2 mm 9 mps 729 mmHg 90%
    19:00 +5°C° 0.2 mm 8 mps 730 mmHg 90%
    20:00 +5°C° 0.2 mm 8 mps 731 mmHg 89%
    21:00 +5°C° 0.1 mm 7 mps 731 mmHg 90%
    22:00 +5°C° 0.1 mm 7 mps 732 mmHg 91%
    23:00 +5°C° 0.1 mm 6 mps 733 mmHg 91%

    Tomorrow, 25 September, Tuesday

    Time Temperature Precipitation Wind Pressure Humidity
    00:00 +5°C° 0.1 mm 6 mps 734 mmHg 91%
    01:00 +5°C° 0.1 mm 6 mps 734 mmHg 90%
    02:00 +5°C° 0.1 mm 6 mps 735 mmHg 90%
    03:00 +5°C° 0 mm 6 mps 736 mmHg 90%
    04:00 +4°C° 0 mm 6 mps 736 mmHg 91%
    05:00 +3°C° 0 mm 6 mps 737 mmHg 91%
    06:00 +3°C° 0 mm 6 mps 738 mmHg 90%
    07:00 +3°C° 0 mm 7 mps 738 mmHg 89%
    08:00 +3°C° 0 mm 7 mps 739 mmHg 89%
    09:00 +3°C° 0 mm 7 mps 739 mmHg 87%
    10:00 +4°C° 0 mm 7 mps 740 mmHg 85%
    11:00 +4°C° 0 mm 7 mps 741 mmHg 84%
    12:00 +5°C° 0 mm 6 mps 741 mmHg 80%
    13:00 +5°C° 0 mm 6 mps 742 mmHg 76%
    14:00 +7°C° 0 mm 6 mps 742 mmHg 73%
    15:00 +7°C° 0 mm 6 mps 743 mmHg 73%
    16:00 +6°C° 0 mm 5 mps 743 mmHg 73%
    17:00 +6°C° 0 mm 5 mps 744 mmHg 73%
    18:00 +5°C° 0 mm 5 mps 744 mmHg 74%
    19:00 +5°C° 0 mm 5 mps 745 mmHg 75%
    20:00 +3°C° 0 mm 5 mps 746 mmHg 77%
    21:00 +2°C° 0 mm 5 mps 746 mmHg 76%
    22:00 +2°C° 0 mm 5 mps 747 mmHg 76%
    23:00 +1°C° 0 mm 5 mps 748 mmHg 76%

    Day after tomorrow, 26 September, Wednesday

    Time Temperature Precipitation Wind Pressure Humidity
    00:00 +1°C° 0 mm 4 mps 748 mmHg 76%
    01:00 0°C° 0 mm 4 mps 749 mmHg 77%
    02:00 0°C° 0 mm 4 mps 749 mmHg 77%
    03:00 0°C° 0 mm 4 mps 750 mmHg 79%
    04:00 -1°C° 0 mm 4 mps 750 mmHg 80%
    05:00 -1°C° 0 mm 4 mps 751 mmHg 82%
    06:00 0°C° 0 mm 4 mps 751 mmHg 82%
    07:00 +1°C° 0 mm 4 mps 751 mmHg 82%
    08:00 +3°C° 0 mm 4 mps 752 mmHg 81%
    09:00 +5°C° 0 mm 4 mps 752 mmHg 75%
    10:00 +6°C° 0 mm 4 mps 752 mmHg 69%
    11:00 +8°C° 0 mm 5 mps 752 mmHg 62%
    12:00 +9°C° 0 mm 5 mps 751 mmHg 59%
    13:00 +9°C° 0 mm 5 mps 751 mmHg 56%
    14:00 +10°C° 0 mm 5 mps 750 mmHg 53%
    15:00 +9°C° 0 mm 5 mps 750 mmHg 57%
    16:00 +9°C° 0 mm 5 mps 749 mmHg 60%
    17:00 +8°C° 0 mm 4 mps 749 mmHg 64%
    18:00 +7°C° 0.1 mm 5 mps 748 mmHg 66%
    19:00 +7°C° 0.1 mm 6 mps 748 mmHg 67%
    20:00 +7°C° 0.1 mm 6 mps 747 mmHg 69%
    21:00 +5°C° 0.6 mm 7 mps 746 mmHg 74%
    22:00 +5°C° 0.6 mm 8 mps 745 mmHg 79%
    23:00 +5°C° 0.6 mm 8 mps 744 mmHg 84%

    27 September, Thursday

    Time Temperature Precipitation Wind Pressure Humidity
    00:00 +5°C° 1.3 mm 9 mps 743 mmHg 86%
    01:00 +5°C° 1.3 mm 9 mps 742 mmHg 87%
    02:00 +5°C° 1.3 mm 9 mps 741 mmHg 89%
    03:00 +5°C° 1 mm 9 mps 740 mmHg 89%
    04:00 +5°C° 1 mm 9 mps 740 mmHg 90%
    05:00 +5°C° 1 mm 9 mps 739 mmHg 90%
    06:00 +6°C° 0.4 mm 8 mps 739 mmHg 90%
    07:00 +6°C° 0.4 mm 8 mps 739 mmHg 90%
    08:00 +7°C° 0.4 mm 8 mps 739 mmHg 91%
    09:00 +9°C° 0.3 mm 7 mps 739 mmHg 89%
    10:00 +9°C° 0.3 mm 6 mps 739 mmHg 88%
    11:00 +10°C° 0.3 mm 6 mps 740 mmHg 87%
    12:00 +11°C° 0.1 mm 6 mps 740 mmHg 81%
    13:00 +13°C° 0.1 mm 6 mps 740 mmHg 75%
    14:00 +14°C° 0.1 mm 6 mps 740 mmHg 69%
    15:00 +13°C° 0.1 mm 5 mps 740 mmHg 71%
    16:00 +12°C° 0.1 mm 4 mps 740 mmHg 73%
    17:00 +12°C° 0.1 mm 3 mps 741 mmHg 75%
    18:00 +11°C° 0 mm 3 mps 741 mmHg 78%
    19:00 +9°C° 0 mm 3 mps 741 mmHg 81%
    20:00 +8°C° 0 mm 3 mps 741 mmHg 84%
    21:00 +8°C° 0 mm 3 mps 741 mmHg 86%
    22:00 +8°C° 0 mm 3 mps 741 mmHg 88%
    23:00 +8°C° 0 mm 3 mps 742 mmHg 91%

    28 September, Friday

    Time Temperature Precipitation Wind Pressure Humidity
    00:00 +8°C° 0 mm 3 mps 741 mmHg 92%
    01:00 +7°C° 0 mm 4 mps 741 mmHg 93%
    02:00 +7°C° 0 mm 4 mps 740 mmHg 94%
    03:00 +8°C° 0 mm 5 mps 740 mmHg 93%
    04:00 +9°C° 0 mm 7 mps 739 mmHg 92%
    05:00 +10°C° 0 mm 8 mps 738 mmHg 91%
    06:00 +11°C° 0 mm 8 mps 737 mmHg 89%
    07:00 +11°C° 0 mm 9 mps 737 mmHg 87%
    08:00 +12°C° 0 mm 10 mps 736 mmHg 85%
    09:00 +12°C° 0.2 mm 10 mps 736 mmHg 84%
    10:00 +12°C° 0.2 mm 10 mps 736 mmHg 82%
    11:00 +13°C° 0.2 mm 10 mps 736 mmHg 81%
    12:00 +13°C° 0.4 mm 10 mps 737 mmHg 77%
    13:00 +12°C° 0.4 mm 9 mps 737 mmHg 73%
    14:00 +12°C° 0.4 mm 9 mps 738 mmHg 69%
    15:00 +11°C° 0 mm 8 mps 739 mmHg 71%
    16:00 +9°C° 0 mm 7 mps 740 mmHg 74%
    17:00 +7°C° 0 mm 5 mps 740 mmHg 76%
    18:00 +6°C° 0 mm 4 mps 741 mmHg 80%
    19:00 +5°C° 0 mm 3 mps 742 mmHg 83%
    20:00 +5°C° 0 mm 2 mps 743 mmHg 87%
    21:00 +5°C° 0 mm 2 mps 743 mmHg 88%
    22:00 +4°C° 0 mm 2 mps 743 mmHg 89%
    23:00 +5°C° 0 mm 1 mps 744 mmHg 90%

    29 September, Saturday

    Time Temperature Precipitation Wind Pressure Humidity
    00:00 +5°C° 0 mm 1 mps 744 mmHg 90%
    01:00 +5°C° 0 mm 1 mps 744 mmHg 91%
    02:00 +4°C° 0 mm 1 mps 744 mmHg 91%
    03:00 +4°C° 0 mm 1 mps 744 mmHg 91%
    04:00 +3°C° 0 mm 2 mps 744 mmHg 91%
    05:00 +3°C° 0 mm 2 mps 744 mmHg 91%
    06:00 +4°C° 0 mm 2 mps 744 mmHg 88%
    07:00 +5°C° 0 mm 2 mps 745 mmHg 85%
    08:00 +6°C° 0 mm 2 mps 745 mmHg 82%
    09:00 +7°C° 0 mm 2 mps 745 mmHg 79%
    10:00 +8°C° 0 mm 2 mps 746 mmHg 75%
    11:00 +9°C° 0 mm 2 mps 746 mmHg 71%
    12:00 +9°C° 0.1 mm 2 mps 746 mmHg 70%
    13:00 +10°C° 0.1 mm 2 mps 746 mmHg 68%
    14:00 +10°C° 0.1 mm 2 mps 746 mmHg 66%
    15:00 +9°C° 0.1 mm 2 mps 746 mmHg 70%
    16:00 +9°C° 0.1 mm 2 mps 746 mmHg 73%
    17:00 +8°C° 0.1 mm 2 mps 747 mmHg 77%
    18:00 +6°C° 0 mm 2 mps 747 mmHg 79%
    19:00 +5°C° 0 mm 2 mps 748 mmHg 81%
    20:00 +4°C° 0 mm 2 mps 748 mmHg 82%
    21:00 +3°C° 0 mm 2 mps 748 mmHg 82%
    22:00 +3°C° 0 mm 2 mps 748 mmHg 81%
    23:00 +2°C° 0 mm 2 mps 749 mmHg 80%
    Show more